Location: Warner Observatory
(35.1353°N, 89.5455°W)
Time: 21:36:50
(UTC-05:00)

Amateur Radio Satellites - All Passes

Search period start: 31 October 2014 21:06
Search period end: 01 November 2014 21:06
Location: Warner Observatory, 35.1353°N, 89.5455°W

Satellite Date Start Highest point End Downlink Frequencies (MHz)
Time Altitude Azimuth
UKube-1 31 Oct 21:23:25 21:27:22 35° 72° (ENE) 21:31:21 145.840 MHz, 145.915 MHz
SO-50 31 Oct 21:25:30 21:29:38 28° 248° (WSW) 21:33:47 436.795 FM
KITSAT 1 31 Oct 21:26:28 21:34:03 46° 250° (WSW) 21:41:36 435.175 FM
ZACube-1 31 Oct 21:34:03 21:37:09 19° 69° (ENE) 21:40:13 437.345 MHz
Oscar 11 31 Oct 21:57:42 22:02:01 84° 77° (ENE) 22:06:21 145.825 FM, Beacon 2401.500 USB
UOSAT-12 31 Oct 22:06:55 22:11:37 72° 60° (ENE) 22:16:13 437.025 FM, 437.400 FM
FUNcube-1 31 Oct 22:15:18 22:19:43 53° 75° (ENE) 22:24:04 145.950 - 145.970 MHz USB
MaSat-1 31 Oct 22:21:10 22:25:04 55° 294° (WNW) 22:28:37 437.345 MHz
HO-68 31 Oct 22:40:03 22:45:05 20° 266° (W) 22:50:09 435.675 MHz FM
RS-15 31 Oct 23:00:22 23:10:11 37° 314° (NW) 23:20:03 29.354 - 29.394 USB, Beacon 29.352 USB
UKube-1 31 Oct 23:00:50 23:03:38 17° 266° (W) 23:06:26 145.840 MHz, 145.915 MHz
ZACube-1 31 Oct 23:09:05 23:13:15 35° 262° (W) 23:17:22 437.345 MHz
FUNcube-1 31 Oct 23:54:42 23:56:19 12° 268° (W) 23:57:55 145.950 - 145.970 MHz USB
Sapphire 01 Nov 00:53:55 00:55:41 12° 102° (ESE) 00:57:27 437.095 MHz 1200 baud AX-25 AFSK
PCSat 01 Nov 01:13:03 01:17:02 21° 106° (ESE) 01:21:01 145.825 MHz
JAS-1B 01 Nov 01:18:13 01:24:02 23° 96° (E) 01:30:29 435.800 - 435.900 CW/SSB
RS-15 01 Nov 01:22:55 01:27:17 13° 347° (NNW) 01:31:41 29.354 - 29.394 USB, Beacon 29.352 USB
Oscar 19 01 Nov 01:35:43 01:39:34 21° 95° (E) 01:43:23 437.125 CW, 437.150 USB
AO-27 01 Nov 02:13:34 02:17:18 20° 94° (E) 02:21:00 436.795 MHz FM
Oscar 16 01 Nov 02:21:53 02:26:59 66° 102° (ESE) 02:32:04 437.025 USB, Beacon 2401.1428
Gurwin Techsat 1B 01 Nov 02:32:42 02:35:48 16° 93° (E) 02:38:52 435.225 FM
Sapphire 01 Nov 02:32:59 02:38:22 75° 297° (WNW) 02:43:49 437.095 MHz 1200 baud AX-25 AFSK
TMSAT-1 01 Nov 02:39:27 02:41:41 13° 91° (E) 02:43:54 436.925 FM
AO-Echo 01 Nov 02:52:16 02:57:35 68° 102° (ESE) 03:02:47 ?
PCSat 01 Nov 02:54:56 03:00:04 44° 301° (WNW) 03:05:15 145.825 MHz
Uribyol 2 01 Nov 02:55:55 03:01:02 56° 101° (E) 03:06:05 436.500 FM
ITAMSAT 1 01 Nov 03:03:59 03:09:11 64° 102° (ESE) 03:14:19 435.822 SSB
JAS-1B 01 Nov 03:07:25 03:14:41 66° 287° (WNW) 03:23:22 435.800 - 435.900 CW/SSB
Oscar 19 01 Nov 03:14:16 03:18:58 38° 289° (WNW) 03:23:39 437.125 CW, 437.150 USB
RS-15 01 Nov 03:40:04 03:46:40 17° 26° (NNE) 03:53:21 29.354 - 29.394 USB, Beacon 29.352 USB
PANSAT 01 Nov 03:44:20 03:47:11 20° 166° (SSE) 03:50:02 not established
AO-27 01 Nov 03:52:02 03:56:56 42° 289° (WNW) 04:01:48 436.795 MHz FM
Oscar 16 01 Nov 04:03:25 04:05:44 13° 297° (WNW) 04:08:03 437.025 USB, Beacon 2401.1428
Gurwin Techsat 1B 01 Nov 04:10:52 04:16:02 54° 287° (WNW) 04:21:11 435.225 FM
TMSAT-1 01 Nov 04:16:44 04:22:00 65° 286° (WNW) 04:27:13 436.925 FM
OPAL 01 Nov 04:19:42 04:23:07 18° 64° (ENE) 04:26:31 ?
Sapphire 01 Nov 04:21:40 04:22:43 11° 315° (NW) 04:23:46 437.095 MHz 1200 baud AX-25 AFSK
AO-Echo 01 Nov 04:33:07 04:35:40 14° 297° (WNW) 04:38:13 ?
Uribyol 2 01 Nov 04:36:59 04:39:59 16° 296° (WNW) 04:42:58 436.500 FM
Uosat F 01 Nov 04:44:46 04:49:08 29° 97° (E) 04:53:28 435.120 FM
ITAMSAT 1 01 Nov 04:45:27 04:48:04 14° 297° (WNW) 04:50:41 435.822 SSB
JAS-2 01 Nov 04:51:05 04:55:13 15° 88° (E) 04:59:14 435.800 - 435.900 CW/SSB, 435.910 FM
AO-7 01 Nov 04:53:21 05:01:27 53° 102° (ESE) 05:09:31 29.400 - 29.500 MHz
JAS-1B 01 Nov 05:02:57 05:04:18 11° 301° (WNW) 05:05:41 435.800 - 435.900 CW/SSB
PANSAT 01 Nov 05:23:29 05:26:53 30° 178° (S) 05:30:16 not established
RS-15 01 Nov 05:51:25 06:02:21 55° 54° (NE) 06:13:43 29.354 - 29.394 USB, Beacon 29.352 USB
Saudisat 1A 01 Nov 05:54:28 05:58:48 66° 301° (WNW) 06:03:11 436.775 MHz
OPAL 01 Nov 05:56:41 06:01:37 47° 258° (WSW) 06:06:30 ?
STRAND 1 01 Nov 06:16:04 06:20:24 28° 69° (ENE) 06:24:45 ?
Uosat F 01 Nov 06:23:35 06:27:47 27° 292° (WNW) 06:31:58 435.120 FM
JAS-2 01 Nov 06:33:08 06:41:04 90° 109° (ESE) 06:48:34 435.800 - 435.900 CW/SSB, 435.910 FM
AO-7 01 Nov 06:46:45 06:53:48 32° 299° (WNW) 07:00:52 29.400 - 29.500 MHz
PANSAT 01 Nov 07:03:30 07:06:36 23° 191° (S) 07:09:41 not established
Hamsat 01 Nov 07:04:08 07:08:17 55° 285° (WNW) 07:12:26 145.90 MHz
SO-67 01 Nov 07:22:31 07:25:15 22° 96° (E) 07:27:58 435.3500 MHz FM
STRAND 1 01 Nov 07:55:03 07:59:28 29° 263° (W) 08:03:55 ?
RS-15 01 Nov 08:04:14 08:14:22 40° 253° (WSW) 08:24:56 29.354 - 29.394 USB, Beacon 29.352 USB
MaSat-1 01 Nov 08:08:38 08:10:59 53° 249° (WSW) 08:13:15 437.345 MHz
JAS-2 01 Nov 08:20:12 08:24:57 18° 301° (WNW) 08:29:37 435.800 - 435.900 CW/SSB, 435.910 FM
HO-68 01 Nov 08:24:28 08:27:18 13° 91° (E) 08:30:06 435.675 MHz FM
ISS 01 Nov 08:48:51 08:51:28 22° 130° (SE) 08:54:06 145.800 FM
SO-67 01 Nov 08:55:51 08:58:01 16° 290° (WNW) 09:00:09 435.3500 MHz FM
Oscar 11 01 Nov 09:49:26 09:52:31 19° 95° (E) 09:55:36 145.825 FM, Beacon 2401.500 USB
KITSAT 1 01 Nov 09:56:01 10:03:14 38° 108° (ESE) 10:10:28 435.175 FM
SO-50 01 Nov 09:57:55 10:00:59 18° 109° (ESE) 10:04:07 436.795 FM
PCSat 01 Nov 10:05:47 10:06:50 11° 45° (NE) 10:07:52 145.825 MHz
HO-68 01 Nov 10:08:32 10:15:46 89° 106° (ESE) 10:22:57 435.675 MHz FM
FUNcube-1 01 Nov 10:09:48 10:11:22 12° 92° (E) 10:12:55 145.950 - 145.970 MHz USB
ISS 01 Nov 10:25:04 10:28:02 30° 325° (NW) 10:31:01 145.800 FM
UKube-1 01 Nov 10:50:18 10:54:40 77° 284° (WNW) 10:59:00 145.840 MHz, 145.915 MHz
ZACube-1 01 Nov 11:01:15 11:05:20 54° 100° (E) 11:09:23 437.345 MHz
Sapphire 01 Nov 11:24:19 11:29:31 44° 59° (ENE) 11:34:39 437.095 MHz 1200 baud AX-25 AFSK
Oscar 11 01 Nov 11:24:56 11:28:42 30° 289° (WNW) 11:32:27 145.825 FM, Beacon 2401.500 USB
SO-50 01 Nov 11:37:00 11:41:11 38° 305° (NW) 11:45:30 436.795 FM
FUNcube-1 01 Nov 11:44:00 11:47:57 43° 286° (WNW) 11:51:52 145.950 - 145.970 MHz USB
PCSat 01 Nov 11:45:43 11:51:10 75° 63° (ENE) 11:56:33 145.825 MHz
KITSAT 1 01 Nov 11:50:49 11:58:26 44° 305° (NW) 12:06:06 435.175 FM
HO-68 01 Nov 11:58:32 12:02:29 16° 303° (WNW) 12:06:25 435.675 MHz FM
UOSAT-12 01 Nov 12:14:55 12:19:18 45° 114° (ESE) 12:23:47 437.025 FM, 437.400 FM
ZACube-1 01 Nov 12:40:29 12:41:13 10° 295° (WNW) 12:41:56 437.345 MHz
Oscar 19 01 Nov 12:49:42 12:53:41 23° 68° (ENE) 12:57:39 437.125 CW, 437.150 USB
Sapphire 01 Nov 13:08:33 13:12:34 21° 254° (WSW) 13:16:34 437.095 MHz 1200 baud AX-25 AFSK
AO-27 01 Nov 13:28:43 13:32:43 23° 67° (ENE) 13:36:43 436.795 MHz FM
PCSat 01 Nov 13:32:02 13:33:51 12° 258° (WSW) 13:35:39 145.825 MHz
Oscar 16 01 Nov 13:35:36 13:40:43 69° 75° (ENE) 13:45:50 437.025 USB, Beacon 2401.1428
Gurwin Techsat 1B 01 Nov 13:50:44 13:54:23 19° 66° (ENE) 13:58:02 435.225 FM
JAS-1B 01 Nov 13:51:02 13:56:51 83° 75° (ENE) 14:02:34 435.800 - 435.900 CW/SSB
KITSAT 1 01 Nov 13:55:15 13:56:15 10° 329° (NNW) 13:57:15 435.175 FM
UOSAT-12 01 Nov 13:56:19 13:59:40 19° 311° (NW) 14:03:03 437.025 FM, 437.400 FM
TMSAT-1 01 Nov 13:57:00 14:00:06 16° 64° (ENE) 14:03:13 436.925 FM
AO-Echo 01 Nov 14:01:50 14:06:43 61° 74° (ENE) 14:11:47 ?
Uribyol 2 01 Nov 14:10:30 14:15:38 62° 74° (ENE) 14:20:48 436.500 FM
ITAMSAT 1 01 Nov 14:18:43 14:23:53 70° 75° (ENE) 14:29:06 435.822 SSB
Saudisat 1A 01 Nov 14:24:12 14:28:20 38° 56° (NE) 14:32:27 436.775 MHz
Oscar 19 01 Nov 14:28:05 14:32:47 36° 262° (W) 14:37:29 437.125 CW, 437.150 USB
AO-27 01 Nov 15:07:07 15:11:56 38° 262° (W) 15:16:48 436.795 MHz FM
Oscar 16 01 Nov 15:18:57 15:20:28 11° 269° (W) 15:21:59 437.025 USB, Beacon 2401.1428
ISS 01 Nov 15:20:46 15:21:59 12° 25° (NNE) 15:23:12 145.800 FM
Gurwin Techsat 1B 01 Nov 15:28:51 15:33:56 47° 260° (W) 15:39:04 435.225 FM
TMSAT-1 01 Nov 15:34:18 15:39:29 57° 259° (W) 15:44:44 436.925 FM
AO-Echo 01 Nov 15:43:49 15:45:53 13° 269° (W) 15:48:00 ?
AO-7 01 Nov 15:48:42 15:56:39 54° 67° (ENE) 16:04:37 29.400 - 29.500 MHz
Uribyol 2 01 Nov 15:53:03 15:55:28 13° 268° (W) 15:57:53 436.500 FM
Uosat F 01 Nov 15:55:02 15:59:21 30° 69° (ENE) 16:03:41 435.120 FM
ITAMSAT 1 01 Nov 16:02:10 16:03:48 11° 269° (W) 16:05:27 435.822 SSB
Saudisat 1A 01 Nov 16:04:35 16:07:35 18° 250° (WSW) 16:10:35 436.775 MHz
JAS-2 01 Nov 16:42:14 16:47:31 29° 64° (ENE) 16:53:20 435.800 - 435.900 CW/SSB, 435.910 FM
ISS 01 Nov 16:55:50 16:59:10 74° 42° (NE) 17:02:29 145.800 FM
Uosat F 01 Nov 17:33:50 17:38:03 27° 263° (W) 17:42:17 435.120 FM
AO-7 01 Nov 17:42:44 17:49:39 30° 263° (W) 17:56:38 29.400 - 29.500 MHz
Hamsat 01 Nov 17:53:56 17:58:04 66° 76° (ENE) 18:02:13 145.90 MHz
KITSAT 1 01 Nov 17:54:22 17:57:29 12° 34° (NE) 18:00:35 435.175 FM
OPAL 01 Nov 18:09:35 18:14:28 59° 103° (ESE) 18:19:20 ?
JAS-2 01 Nov 18:26:20 18:32:11 44° 263° (W) 18:38:48 435.800 - 435.900 CW/SSB, 435.910 FM
STRAND 1 01 Nov 18:31:52 18:33:38 12° 91° (E) 18:35:24 ?
SO-50 01 Nov 18:33:49 18:34:35 10° 43° (NE) 18:35:22 436.795 FM
SO-67 01 Nov 19:23:45 19:27:11 85° 259° (WSW) 19:30:38 435.3500 MHz FM
KITSAT 1 01 Nov 19:47:02 19:54:55 54° 57° (ENE) 20:02:45 435.175 FM
OPAL 01 Nov 19:50:16 19:52:49 14° 298° (WNW) 19:55:23 ?
STRAND 1 01 Nov 20:08:07 20:13:14 67° 286° (WNW) 20:18:17 ?
SO-50 01 Nov 20:11:03 20:15:55 77° 60° (ENE) 20:20:48 436.795 FM
RS-15 01 Nov 20:11:17 20:21:33 46° 109° (ESE) 20:31:39 29.354 - 29.394 USB, Beacon 29.352 USB
HO-68 01 Nov 20:33:23 20:40:10 49° 68° (ENE) 20:47:00 435.675 MHz FM
Oscar 11 01 Nov 20:43:40 20:44:42 11° 65° (ENE) 20:45:43 145.825 FM, Beacon 2401.500 USB
UOSAT-12 01 Nov 20:48:16 20:51:36 19° 49° (NE) 20:54:53 437.025 FM, 437.400 FM
